Date_and_time,latitude,longitude,wind_speed,RelWindDirFrom,WindDirFrom,air_pressure,air_temperature,relative_humidity,Temp,platform_speed_wrt_ground,air_pressure_at_mean_sea_level,platform_orientation
2018-08-12 00:00,53.21269,-99.23266,11.3,15.3,6,983.99,26.0,51,21.37,0.0,1009.25,248.3
2018-08-12 00:10,53.205675,-99.244645,7.3,15.9,352,984.22,25.4,55,21.43,3.6,1009.51,248.3
2018-08-12 00:20,53.1877316666667,-99.2547583333333,4.3,8.8,344,984.47,25.7,49,21.81,6.8,1009.77,248.3
2018-08-12 00:30,53.1826833333333,-99.25449,8.4,10.7,8,984.51,25.7,51,22.00,1.8,1009.79,248.3
2018-08-12 00:40,53.1827333333333,-99.2544833333333,8.8,11.7,6,984.52,25.4,52,22.06,0.0,1009.87,248.3
2018-08-12 00:50,53.1827816666667,-99.2544733333333,8.8,11.3,11,984.48,25.3,50,22.08,0.0,1009.85,248.3
2018-08-12 01:00,53.1827866666667,-99.2544766666667,9.8,12.2,4,984.68,24.9,55,22.09,0.0,1010.07,240.1
2018-08-12 01:10,53.182785,-99.2544833333333,7.8,10.0,10,984.64,24.6,54,22.11,0.0,1010.05,240.1
2018-08-12 01:20,53.1827816666667,-99.254475,6.3,8.8,15,984.67,24.6,55,22.11,0.0,1010.07,240.1
2018-08-12 01:30,53.1827833333333,-99.2544816666667,6.1,7.6,11,984.77,24.2,58,22.10,0.0,1010.17,240.1
2018-08-12 01:40,53.1827866666667,-99.2544833333333,6.1,8.0,8,984.95,23.8,63,22.10,0.0,1010.37,240.1
2018-08-12 01:50,53.1827966666667,-99.2544816666667,5.5,7.0,6,985.07,23.6,63,22.10,0.0,1010.51,240.1
2018-08-12 02:00,53.1827816666667,-99.254485,4.5,6.0,5,985.08,23.6,61,22.10,0.0,1010.55,226.6
2018-08-12 02:10,53.1827816666667,-99.2544816666667,4.1,6.0,17,984.98,23.7,59,22.09,0.0,1010.44,226.6
2018-08-12 02:20,53.182785,-99.2544783333333,4.2,6.3,19,984.89,23.7,58,22.09,0.0,1010.34,226.6
2018-08-12 02:30,53.1827866666667,-99.2544783333333,2.1,5.4,54,984.67,23.7,58,22.09,0.0,1010.13,226.6
2018-08-12 02:40,53.1827866666667,-99.25448,1.2,4.5,15,984.73,23.5,59,22.08,0.0,1010.21,226.6
2018-08-12 02:50,53.182805,-99.2544766666667,3.1,4.7,351,985.30,23.1,69,22.07,0.0,1010.82,226.6
2018-08-12 03:00,53.1828,-99.254475,3.2,4.2,360,985.35,22.5,75,22.06,0.0,1010.91,203.6
2018-08-12 03:10,53.1827983333333,-99.2544733333333,4.8,7.4,1,985.42,22.3,73,22.05,0.0,1011.00,203.6
2018-08-12 03:20,53.182795,-99.2544733333333,6.2,8.0,3,985.50,22.5,67,22.05,0.0,1011.08,203.6
2018-08-12 03:30,53.182795,-99.2544716666667,8.8,11.3,356,985.71,22.5,64,22.03,0.0,1011.32,203.6
2018-08-12 03:40,53.1827933333333,-99.2544716666667,9.1,11.2,353,985.89,22.4,64,22.03,0.0,1011.51,203.6
2018-08-12 03:50,53.1827933333333,-99.25447,9.1,11.5,347,986.11,22.4,62,22.02,0.0,1011.74,203.6
2018-08-12 04:00,53.1827916666667,-99.25447,10.2,12.9,348,986.27,22.3,63,22.02,0.0,1011.90,58.9
2018-08-12 04:10,53.18279,-99.2544716666667,11.4,13.7,352,986.47,22.1,63,22.00,0.0,1012.12,58.9
2018-08-12 04:20,53.1827883333333,-99.2544733333333,11.8,14.9,356,986.59,22.0,62,22.00,0.0,1012.25,58.9
2018-08-12 04:30,53.1827883333333,-99.254475,11.8,15.0,357,986.69,22.0,61,22.00,0.0,1012.36,58.9
2018-08-12 04:40,53.18279,-99.254475,11.9,15.1,2,986.72,21.9,60,22.00,0.0,1012.41,58.9
2018-08-12 04:50,53.18279,-99.254475,11.6,16.2,4,986.80,21.8,60,22.00,0.0,1012.52,58.9
2018-08-12 05:00,53.1827883333333,-99.254475,10.6,14.9,9,986.97,21.6,59,22.01,0.0,1012.71,58.9
2018-08-12 05:10,53.18276,-99.2544916666667,10.7,14.4,7,987.24,21.5,60,22.01,0.0,1012.99,58.9
2018-08-12 05:20,53.1827783333333,-99.2544883333333,11.1,14.1,7,987.28,21.3,60,22.00,0.0,1013.04,58.9
2018-08-12 05:30,53.1827783333333,-99.2544866666667,12.2,16.2,9,987.21,21.2,58,21.97,0.0,1012.97,58.9
2018-08-12 05:40,53.182775,-99.2544833333333,12.0,15.7,9,987.37,21.1,59,21.97,0.0,1013.14,58.9
2018-08-12 05:50,53.182775,-99.2544833333333,12.0,16.2,7,987.57,20.9,58,21.96,0.0,1013.36,58.9
2018-08-12 06:00,53.1827766666667,-99.2544833333333,12.1,17.0,15,987.52,20.8,56,21.95,0.0,1013.32,200.0
2018-08-12 06:10,53.1827766666667,-99.254485,12.3,18.4,11,987.66,20.8,56,21.95,0.0,1013.47,200.0
2018-08-12 06:20,53.1827766666667,-99.2544833333333,10.2,14.7,13,987.73,20.6,56,21.95,0.0,1013.55,200.0
2018-08-12 06:30,53.1827766666667,-99.2544833333333,10.7,14.7,10,987.68,20.5,57,21.94,0.0,1013.51,200.0
2018-08-12 06:40,53.1827766666667,-99.2544833333333,9.7,14.1,14,987.66,20.5,56,21.93,0.0,1013.50,200.0
2018-08-12 06:50,53.1827716666667,-99.2544833333333,10.3,14.9,13,987.72,20.4,56,21.90,0.0,1013.56,200.0
2018-08-12 07:00,53.182775,-99.2544833333333,9.5,13.4,13,987.76,20.2,57,21.90,0.0,1013.62,219.2
2018-08-12 07:10,53.1827816666667,-99.2544866666667,8.9,12.1,16,987.76,20.1,58,21.90,0.0,1013.64,219.2
2018-08-12 07:20,53.1827816666667,-99.2544866666667,8.0,11.7,18,987.72,19.9,59,21.90,0.0,1013.61,219.2
2018-08-12 07:30,53.1827833333333,-99.254485,8.1,12.4,19,987.75,19.9,60,21.89,0.0,1013.64,219.2
2018-08-12 07:40,53.18278,-99.2544833333333,9.6,13.3,13,987.72,19.8,62,21.88,0.0,1013.63,219.2
2018-08-12 07:50,53.1827816666667,-99.254485,8.9,12.7,10,987.72,19.4,64,21.87,0.0,1013.65,219.2
2018-08-12 08:00,53.18278,-99.254485,7.9,13.2,21,987.73,19.5,64,21.87,0.0,1013.66,238.9
2018-08-12 08:10,53.18278,-99.2544833333333,7.7,11.2,25,987.54,19.5,66,21.85,0.0,1013.47,238.9
2018-08-12 08:20,53.1827783333333,-99.2544833333333,8.1,13.6,31,987.41,19.6,65,21.85,0.0,1013.33,238.9
2018-08-12 08:30,53.1827783333333,-99.2544833333333,10.4,17.4,23,987.20,19.9,61,21.84,0.0,1013.10,238.9
2018-08-12 08:40,53.1827783333333,-99.254485,9.5,14.9,25,987.22,20.0,62,21.83,0.0,1013.13,238.9
2018-08-12 08:50,53.1827783333333,-99.254485,9.6,16.1,32,987.13,20.0,61,21.81,0.0,1013.04,238.9
2018-08-12 09:00,53.1827783333333,-99.254485,8.2,13.7,36,987.29,20.1,60,21.79,0.0,1013.21,0.0
2018-08-12 09:10,53.1827816666667,-99.2544783333333,6.9,13.1,48,987.34,20.1,61,21.77,0.0,1013.26,0.0
2018-08-12 09:20,53.1827816666667,-99.2544866666667,7.4,11.8,48,987.51,20.1,62,21.78,0.0,1013.44,0.0
2018-08-12 09:30,53.1827783333333,-99.2544883333333,7.9,15.5,41,987.69,20.1,63,21.77,0.0,1013.64,0.0
2018-08-12 09:40,53.1827766666667,-99.2544866666667,8.6,15.0,38,987.84,20.0,64,21.76,0.0,1013.81,0.0
2018-08-12 09:50,53.1827766666667,-99.2544866666667,8.5,14.7,40,987.88,19.9,64,21.76,0.0,1013.85,0.0
2018-08-12 10:00,53.1827766666667,-99.2544883333333,8.4,17.3,44,987.91,19.9,66,21.75,0.0,1013.88,360.0
2018-08-12 10:10,53.1827766666667,-99.2544883333333,9.0,16.1,46,987.93,19.9,64,21.73,0.0,1013.90,360.0
2018-08-12 10:20,53.1827833333333,-99.2544883333333,8.7,16.0,53,987.99,20.0,63,21.75,0.0,1013.94,360.0
2018-08-12 10:30,53.1827716666667,-99.2544883333333,7.7,15.0,66,987.90,19.9,60,21.73,0.0,1013.85,360.0
2018-08-12 10:40,53.1827716666667,-99.25449,8.6,18.4,68,987.78,19.9,59,21.71,0.0,1013.72,360.0
2018-08-12 10:50,53.1827733333333,-99.25449,9.2,17.3,65,987.95,19.9,57,21.70,0.0,1013.90,360.0
2018-08-12 11:00,53.1827733333333,-99.2544883333333,8.9,18.5,65,988.28,19.8,58,21.70,0.0,1014.24,146.5
2018-08-12 11:10,53.1827733333333,-99.25449,9.9,20.6,53,988.91,19.7,58,21.69,0.0,1014.88,146.5
2018-08-12 11:20,53.18277,-99.2544916666667,10.7,20.1,47,989.53,19.8,60,21.67,0.0,1015.52,146.5
2018-08-12 11:30,53.1827933333333,-99.2544733333333,10.5,19.5,43,989.85,19.7,59,21.66,0.0,1015.86,146.5
2018-08-12 11:40,53.1921666666667,-99.2554,17.3,28.5,29,989.90,19.7,62,21.65,3.4,1015.91,146.5
2018-08-12 11:50,53.2036733333333,-99.23223,26.8,31.8,36,989.09,19.5,61,21.65,6.5,1015.09,146.5
2018-08-12 12:00,53.2154933333333,-99.1860716666667,30.2,33.9,45,988.81,19.4,59,21.41,10.8,1014.81,51.4
2018-08-12 12:10,53.2287616666667,-99.142455,30.6,35.2,47,988.91,19.4,58,20.79,10.5,1014.91,51.4
2018-08-12 12:20,53.2427966666667,-99.1001983333333,30.3,34.8,48,988.85,19.3,58,20.54,10.4,1014.85,51.4
2018-08-12 12:30,53.2611416666667,-99.0646533333333,29.9,34.2,45,988.85,19.2,59,20.24,10.1,1014.85,51.4
2018-08-12 12:40,53.2786866666667,-99.035045,29.3,34.2,44,989.15,19.1,57,19.87,9.0,1015.17,51.4
2018-08-12 12:50,53.29944,-99.015055,29.2,34.2,32,989.24,18.8,60,19.72,8.6,1015.28,51.4
2018-08-12 13:00,53.3173033333333,-98.9992383333333,27.1,34.7,38,989.26,18.6,62,19.55,7.3,1015.31,48.5
2018-08-12 13:10,53.3398383333333,-98.977955,29.4,33.4,40,988.72,18.5,62,19.51,9.3,1014.76,48.5
2018-08-12 13:20,53.3618933333333,-98.9560083333333,29.0,32.7,40,988.62,18.6,64,19.42,9.2,1014.66,48.5
2018-08-12 13:30,53.3842066666667,-98.9331483333333,29.1,35.4,43,988.66,18.5,64,19.27,9.4,1014.71,48.5
2018-08-12 13:40,53.4067533333333,-98.9110883333333,31.1,35.1,46,988.41,18.4,61,19.18,9.4,1014.46,48.5
2018-08-12 13:50,53.429415,-98.8898216666667,30.1,33.8,45,988.81,18.2,62,19.22,9.3,1014.88,48.5
2018-08-12 14:00,53.4523816666667,-98.8686516666667,30.2,34.3,46,988.97,18.1,63,19.21,9.4,1015.05,40.4
2018-08-12 14:10,53.47535,-98.847885,30.9,34.5,51,988.64,17.9,64,19.32,9.4,1014.72,40.4
2018-08-12 14:20,53.49831,-98.8268666666667,30.3,34.3,55,988.90,17.8,64,19.29,9.4,1015.00,40.4
2018-08-12 14:30,53.5214366666667,-98.8060983333333,30.2,34.1,52,989.10,17.8,63,19.23,9.4,1015.22,40.4
2018-08-12 14:40,53.54406,-98.784525,30.7,34.8,47,989.68,17.8,62,19.27,9.4,1015.82,40.4
2018-08-12 14:50,53.5664666666667,-98.7618116666667,31.4,34.4,43,989.48,17.7,62,19.33,9.4,1015.63,40.4
2018-08-12 15:00,53.5891783333333,-98.739805,31.5,36.0,43,989.36,17.4,63,19.32,9.4,1015.53,35.3
2018-08-12 15:10,53.6118733333333,-98.717285,30.1,34.8,44,989.98,17.2,63,19.33,9.5,1016.17,35.3
2018-08-12 15:20,53.6348283333333,-98.6937416666667,27.9,31.3,49,990.68,17.2,62,19.39,9.7,1016.89,35.3
2018-08-12 15:30,53.6596483333333,-98.6693616666667,31.0,34.3,45,989.97,17.1,62,19.37,10.3,1016.17,35.3
2018-08-12 15:40,53.6850933333333,-98.6447316666667,30.5,36.0,44,990.26,17.1,62,19.39,10.6,1016.47,35.3
2018-08-12 15:50,53.7108366666667,-98.6202316666667,30.1,34.3,49,990.46,17.1,61,19.37,10.6,1016.69,35.3
2018-08-12 16:00,53.736425,-98.5952516666667,32.7,36.4,45,989.90,17.0,60,19.38,10.6,1016.12,29.6
2018-08-12 16:10,53.7619,-98.570095,33.8,38.0,50,989.11,16.9,61,19.44,10.6,1015.32,29.6
2018-08-12 16:20,53.7874233333333,-98.5441566666667,31.1,35.3,52,990.19,16.8,61,19.51,10.7,1016.44,29.6
2018-08-12 16:30,53.81313,-98.5174533333333,27.1,31.1,37,991.03,16.6,62,19.71,10.9,1017.30,29.6
2018-08-12 16:40,53.8325033333333,-98.4996633333333,24.0,31.3,30,991.06,16.0,64,19.96,7.9,1017.38,29.6
2018-08-12 16:50,53.8322983333333,-98.50008,15.8,18.6,31,991.52,15.6,64,19.82,0.1,1017.88,29.6
2018-08-12 17:00,53.8322616666667,-98.5000316666667,17.4,20.1,26,991.06,15.4,67,19.81,0.0,1017.42,29.8
2018-08-12 17:10,53.8324666666667,-98.5002966666667,18.4,23.1,45,990.13,15.2,70,19.79,0.1,1016.47,29.8
2018-08-12 17:20,53.8326116666667,-98.500295,15.4,21.6,58,990.74,15.3,69,19.77,0.1,1017.10,29.8
2018-08-12 17:30,53.832385,-98.5001833333333,11.8,15.0,36,991.95,15.4,68,19.73,0.1,1018.34,29.8
2018-08-12 17:40,53.8327966666667,-98.4993566666667,8.7,12.3,44,992.12,15.2,69,19.73,0.2,1018.53,29.8
2018-08-12 17:50,53.8467216666667,-98.50048,12.0,19.2,19,992.32,15.2,70,19.57,5.0,1018.74,29.8
2018-08-12 18:00,53.8466333333333,-98.5009016666667,8.0,10.6,20,992.50,14.5,75,19.23,0.1,1018.96,28.7
2018-08-12 18:10,53.8466116666667,-98.5008566666667,7.3,9.4,5,993.00,13.9,80,19.18,0.0,1019.50,28.7
2018-08-12 18:20,53.846645,-98.5009783333333,9.2,13.1,36,992.34,13.8,83,19.17,0.0,1018.84,28.7
2018-08-12 18:30,53.84664,-98.5009766666667,13.8,17.5,52,990.63,13.6,86,19.14,0.0,1017.12,28.7
2018-08-12 18:40,53.8466466666667,-98.50103,16.7,20.9,54,989.58,13.4,87,19.11,0.0,1016.06,28.7
2018-08-12 18:50,53.8466233333333,-98.5009933333333,17.8,23.0,55,988.76,13.4,88,19.08,0.0,1015.24,28.7
2018-08-12 19:00,53.8467233333333,-98.5010283333333,13.8,20.0,50,989.39,13.3,89,19.06,0.0,1015.89,26.7
2018-08-12 19:10,53.83533,-98.500335,13.4,19.8,53,989.50,13.3,89,19.05,4.1,1016.01,26.7
2018-08-12 19:20,53.828795,-98.491835,19.4,23.7,52,989.41,13.8,88,19.40,3.0,1015.89,26.7
2018-08-12 19:30,53.8244433333333,-98.4821816666667,19.2,25.3,53,990.07,14.0,84,19.69,2.6,1016.56,26.7
2018-08-12 19:40,53.8210483333333,-98.4712933333333,20.0,26.0,49,990.00,14.1,83,19.87,2.6,1016.49,26.7
2018-08-12 19:50,53.8138533333333,-98.457935,22.3,28.9,44,989.57,14.0,84,19.89,3.8,1016.08,26.7
2018-08-12 20:00,53.7951383333333,-98.4169583333333,25.5,31.9,59,988.82,13.9,87,19.83,11.0,1015.34,127.1
2018-08-12 20:10,53.7759683333333,-98.3769416666667,27.3,32.3,62,989.20,14.3,75,19.78,11.0,1015.73,127.1
2018-08-12 20:20,53.7564333333333,-98.3372183333333,26.0,30.3,61,989.75,14.4,73,19.72,11.0,1016.29,127.1
2018-08-12 20:30,53.7370883333333,-98.29691,24.7,29.1,55,989.93,14.5,73,19.52,11.1,1016.48,127.1
2018-08-12 20:40,53.71783,-98.2560116666667,25.1,29.2,49,989.70,14.5,76,19.40,11.1,1016.24,127.1
2018-08-12 20:50,53.6982766666667,-98.2152516666667,26.2,29.8,45,989.65,14.5,77,19.43,11.2,1016.19,127.1
2018-08-12 21:00,53.6927766666667,-98.2026566666667,21.9,26.2,31,989.44,14.7,79,19.46,3.3,1015.97,131.0
2018-08-12 21:10,53.6927416666667,-98.2025733333333,21.6,24.9,27,989.55,14.9,76,19.45,0.0,1016.06,131.0
2018-08-12 21:20,53.692755,-98.2026016666667,19.9,23.8,26,990.43,14.9,74,19.44,0.0,1016.94,131.0
2018-08-12 21:30,53.6927766666667,-98.20275,23.4,29.9,29,989.58,14.8,76,19.43,0.0,1016.08,131.0
2018-08-12 21:40,53.6940566666667,-98.1912866666667,26.6,35.5,35,989.36,14.8,76,19.42,2.5,1015.86,131.0
2018-08-12 21:50,53.7081583333333,-98.1486966666667,33.1,38.0,40,988.01,14.9,76,19.44,10.4,1014.47,131.0
2018-08-12 22:00,53.7283433333333,-98.1118683333333,31.8,37.4,42,987.81,14.9,78,19.48,10.7,1014.24,117.1
2018-08-12 22:10,53.7442766666667,-98.0845733333333,31.3,38.5,49,987.41,14.7,78,20.03,8.2,1013.84,117.1
2018-08-12 22:20,53.7486616666667,-98.0785016666667,22.4,33.7,49,988.71,14.5,79,20.04,2.0,1015.18,117.1
2018-08-12 22:30,53.7486483333333,-98.0784766666667,22.6,27.9,49,988.55,14.3,79,19.95,0.0,1015.02,117.1
2018-08-12 22:40,53.7485933333333,-98.0783983333333,20.2,25.8,41,989.03,14.2,79,19.92,0.0,1015.51,117.1
2018-08-12 22:50,53.7486,-98.0784033333333,16.5,22.3,28,990.21,14.0,81,19.87,0.0,1016.73,117.1
2018-08-12 23:00,53.7485983333333,-98.0784316666667,19.7,27.5,38,989.65,13.9,81,19.78,0.0,1016.15,103.0
2018-08-12 23:10,53.7486,-98.0784133333333,21.3,29.4,36,988.96,14.1,80,19.71,0.0,1015.43,103.0
2018-08-12 23:20,53.748695,-98.0785566666667,25.1,33.2,53,987.75,14.1,83,19.68,0.0,1014.19,103.0
2018-08-12 23:30,53.748605,-98.07844,22.8,31.7,59,988.21,13.6,89,19.68,0.0,1014.68,103.0
2018-08-12 23:40,53.7486166666667,-98.0784333333333,22.2,29.9,55,989.27,13.5,90,19.66,0.0,1015.77,103.0
